Home   Weather   Soltau   Past weeks

Flag for Germany Past Weather in Soltau, Lower Saxony, Germany — Yesterday and Last 2 Weeks

Now
45 °F

Drizzle. Fog.


Feels Like: 40 °F
Forecast: 43 / 46 °F
Wind: 8 mph from West

Location: Fassberg

Current Time: Dec 10, 2016 at 3:41:52 pm

Latest Report: Dec 10, 2016 at 2:20 pm


Visibility: 2 mi

Pressure: 30.12 "Hg

Humidity: 100%

Dew Point: 45 °F

Location of SoltauLocation

Past Weather in Soltau — Graph

°F

Soltau Temperature Yesterday

Maximum temperature yesterday: 50 °F (at 12:00 pm)
Minimum temperature yesterday: 43 °F (at 1:20 am)
Average temperature yesterday: 47 °F

High & Low Weather Summary for the Past Weeks

 TemperatureHumidityPressure
High50 °F (Dec 9, 12:00 pm)100% (Nov 25, 2:20 pm)30.57 "Hg (Nov 25, 2:20 pm)
Low12 °F (Dec 5, 7:20 am)49% (Dec 2, 2:20 pm)29.92 "Hg (Dec 1, 11:20 pm)
Average33 °F88%30.27 "Hg
* Reported Nov 25 2:20 pm — Dec 10 2:20 pm, Soltau, Weather by CustomWeather, © 2016

Note: Actual official high and low records may vary slightly from our data, if they occured in-between our weather recording intervals... More about our weather records

Advertising

Soltau Weather History for the Previous 24 Hours

Scroll right to see more
 ConditionsComfort  
Time TempWeatherWind HumidityBarometerVisibility
2:20 pm
Sat, Dec 10
45 °FDrizzle. Fog.8 mph100%30.12 "Hg1 mi
1:20 pm45 °FDrizzle. Fog.9 mph93%30.12 "Hg1 mi
12:45 pm45 °FDrizzle. Fog.9 mph93%30.12 "Hg1 mi
12:20 pm46 °FDrizzle. Fog.9 mph87%30.12 "Hg2 mi
11:20 am46 °FPartly sunny.13 mph87%30.12 "Hg4 mi
10:20 am46 °FPartly sunny.14 mph82%30.12 "HgN/A
9:20 am46 °FPartly sunny.13 mph82%30.12 "HgN/A
8:20 am46 °FPassing clouds.12 mph82%30.12 "Hg6 mi
7:20 am46 °FPartly cloudy.9 mph82%30.09 "HgN/A
6:20 am46 °FPartly cloudy.8 mph82%30.12 "HgN/A
5:20 am46 °FPassing clouds.10 mph87%30.12 "HgN/A
4:20 am46 °FPassing clouds.8 mph87%30.15 "HgN/A
3:20 am46 °FPassing clouds.8 mph87%30.15 "Hg6 mi
2:20 am46 °FPassing clouds.10 mph87%30.15 "Hg4 mi
1:20 am48 °FPartly cloudy.13 mph87%30.18 "Hg4 mi
12:20 am50 °FPassing clouds.13 mph88%30.18 "Hg4 mi
11:20 pm
Fri, Dec 9
50 °FFog.14 mph88%30.18 "Hg2 mi
10:20 pm50 °FFog.14 mph94%30.18 "Hg2 mi
9:20 pm48 °FFog.13 mph100%30.21 "Hg1 mi
8:20 pm48 °FDrizzle. Fog.12 mph94%30.21 "Hg0 mi
7:45 pm48 °FDrizzle. Fog.10 mph94%30.21 "Hg1 mi
7:20 pm46 °FDrizzle. Fog.9 mph100%30.21 "Hg1 mi
6:20 pm46 °FDrizzle. Fog.9 mph100%30.24 "Hg1 mi
5:20 pm46 °FDrizzle. Fog.10 mph100%30.24 "Hg1 mi
4:20 pm48 °FDrizzle. Fog.10 mph94%30.27 "Hg1 mi
3:20 pm48 °FFog.9 mph94%30.27 "Hg2 mi
Weather by CustomWeather, © 2016

See weather overviewHow to use our weather pages